Location: Guferjoch
(46.7462°N, 8.4506°E)
Time: 00:24:20
(UTC+00:00)

Cosmos 220 Rocket - Pass Details

Date: 14 July 2020
Orbit: 575 x 616 km, 74.0° (Epoch: 03 August)

Event Time Altitude Azimuth Distance (km) Brightness Sun altitude
Rises 00:54:18 0° 339° (NNW) 2,827 8.2 -19.1°
Reaches altitude 10° 00:56:33 10° 340° (NNW) 1,916 7.3 -19.0°
Maximum altitude 01:00:49 79° 67° (ENE) 597 4.0 -18.7°
Enters shadow 01:02:53 30° 151° (SSE) 1,060 4.9 -18.6°
